Lapse_Rate
6.5 6.8 6.7 6.8 6.6 6.3 6.5 6.3 6.1 5.9 6.2 6.3 6.6 6.9 7.2 7.0 7.1 6.9 6.7 6.6 6.7 6.8 6.7 6.9 6.9 7.0 7.0 7.1 7.1 7.1 7.1 7.2 7.1 7.1 7.0 7.0 6.9 6.8 6.7 6.6 6.5 6.4 6.5 6.5
6.3 6.1 6.2 6.4 6.4 6.4 6.5 6.4 6.0 6.3 6.4 5.9 6.7 7.3 7.3 7.2 7.2 7.0 6.8 6.8 6.8 7.0 7.1 7.0 7.0 7.1 7.1 7.1 7.2 7.2 7.0 6.9 6.9 6.9 6.9 6.7 6.7 6.6 6.6 6.5 6.5 6.4 6.2 6.0
6.4 6.4 6.5 6.5 6.4 6.5 5.9 6.2 6.1 6.0 6.5 6.2 6.3 7.1 7.0 7.0 7.1 6.9 6.9 7.0 7.1 7.1 7.3 7.2 7.2 7.1 7.1 7.1 7.0 7.0 6.9 7.0 6.9 6.8 6.6 6.4 6.4 6.4 6.5 6.3 6.1 6.1 6.0 5.9
6.6 6.6 6.6 6.4 6.4 6.2 6.0 6.1 6.1 6.1 6.1 5.8 6.1 6.1 6.9 7.2 7.2 7.0 7.0 7.0 7.1 7.1 7.2 7.1 7.0 7.0 7.1 7.0 6.9 6.8 6.9 6.9 6.8 6.7 6.5 6.4 6.3 6.3 6.2 6.2 6.1 6.0 6.0 5.8
6.6 6.5 6.5 6.4 6.3 6.2 6.3 6.2 6.3 6.2 5.9 5.7 5.6 5.6 6.8 6.8 6.9 6.7 6.8 7.1 7.1 7.1 7.1 7.0 6.9 6.8 6.6 6.6 6.8 7.0 7.0 7.0 6.9 6.5 6.2 6.2 6.1 6.1 6.0 6.0 6.1 6.0 5.9 5.8
6.3 6.3 6.2 6.2 6.2 6.2 6.1 6.2 6.2 5.8 5.6 4.3 5.7 5.9 6.6 6.7 6.5 6.1 6.9 7.0 7.1 7.0 6.9 6.9 6.8 6.7 6.6 6.7 6.9 7.0 7.1 7.0 6.8 6.2 6.0 6.1 6.0 5.8 5.8 5.8 5.9 6.0 5.9 5.7
6.1 6.2 6.2 6.1 6.1 6.0 6.1 6.4 5.9 4.4 4.4 4.5 5.9 5.9 6.8 6.6 6.8 6.5 7.1 6.8 6.8 6.8 6.9 6.9 6.8 6.7 6.6 6.7 6.9 7.1 7.0 6.8 6.4 6.0 5.9 5.9 5.8 5.7 5.7 5.6 5.7 5.8 5.8 5.7
5.8 5.8 6.2 6.1 6.0 6.0 6.0 6.0 5.6 4.4 4.1 4.4 5.9 6.0 6.3 6.7 6.8 6.6 6.5 6.7 6.8 6.8 6.7 6.6 6.7 6.7 6.6 6.7 6.8 6.8 6.7 6.4 6.1 5.9 5.8 5.7 5.6 5.7 5.5 5.5 5.6 5.7 5.8 5.8
5.8 5.8 6.1 6.0 5.9 5.8 5.5 5.6 5.7 5.6 5.4 5.0 6.5 6.8 6.4 6.9 7.3 6.6 6.5 6.7 6.6 6.3 6.3 6.4 6.6 6.5 6.5 6.5 6.5 6.4 6.2 5.8 5.7 5.6 5.6 5.5 5.4 5.5 5.5 5.4 5.4 5.5 5.6 5.7
6.1 5.8 5.9 6.0 6.0 6.0 5.9 5.6 5.2 5.3 4.4 5.1 7.1 7.0 6.9 7.0 7.0 6.9 6.5 6.3 6.2 6.1 6.3 6.5 6.4 6.3 6.2 6.1 6.0 5.9 5.7 5.5 5.4 5.3 5.3 5.3 5.3 5.2 5.3 5.2 5.2 5.2 5.3 5.4
6.1 6.0 5.8 6.0 5.9 5.5 5.7 5.4 5.4 5.5 5.6 4.8 5.2 6.5 7.0 6.9 6.8 6.6 6.2 6.2 6.1 6.2 6.3 6.2 5.9 5.9 5.9 5.7 5.7 5.6 5.5 5.4 5.2 5.3 5.4 5.4 5.1 4.9 5.0 5.0 5.1 5.2 5.1 5.4
5.8 5.5 5.3 5.3 5.6 5.4 5.5 5.4 5.1 5.2 5.6 5.6 5.5 5.9 6.7 6.5 6.2 5.7 5.6 5.6 5.8 5.8 5.6 5.2 5.1 5.0 4.9 4.9 4.9 4.9 5.0 5.1 5.2 5.2 5.2 5.1 4.9 4.7 4.7 4.7 4.8 5.0 5.1 5.1
5.5 5.3 5.5 5.3 5.6 5.7 5.6 5.9 5.6 5.0 4.9 5.1 5.0 6.2 6.3 6.2 5.7 4.9 5.1 5.6 5.6 5.1 4.7 4.5 4.6 4.6 4.6 4.7 4.7 4.7 4.8 4.9 5.0 5.1 5.0 4.8 4.7 4.5 4.5 4.4 4.3 4.6 4.6 4.7
5.4 5.3 5.4 5.5 5.1 5.1 5.2 5.6 5.5 5.2 4.7 5.1 5.4 6.1 6.2 5.5 4.7 5.0 5.0 5.1 5.1 4.5 4.3 4.2 4.3 4.6 4.7 4.9 4.8 4.9 5.0 5.0 4.9 4.9 4.8 4.8 4.5 4.4 4.3 4.5 4.3 4.3 4.4 4.4
4.9 5.1 5.1 5.4 5.7 5.3 5.2 5.2 4.9 4.4 5.1 4.3 5.6 5.3 5.4 5.0 4.7 4.9 5.0 4.7 4.4 4.3 4.1 4.1 4.2 4.6 4.8 4.8 4.9 5.0 5.1 4.9 4.8 5.0 5.1 4.8 4.8 4.5 4.4 4.5 4.7 4.6 4.8 4.7
4.9 4.9 4.6 5.3 5.5 5.3 5.2 5.5 5.1 4.8 4.4 4.0 4.4 5.5 4.6 4.3 5.0 4.8 4.4 4.3 4.3 4.1 4.1 4.4 4.8 4.9 5.0 4.7 4.7 5.0 4.9 5.0 5.1 5.0 5.3 5.1 4.8 4.7 4.4 4.2 4.5 4.6 4.5 4.3
4.3 4.3 3.8 4.2 4.5 4.5 5.1 5.9 5.7 5.6 5.4 5.2 4.7 5.1 4.5 4.4 4.7 4.2 4.1 4.2 4.1 4.3 4.6 4.7 4.9 5.2 5.1 4.8 5.0 5.4 5.2 4.9 4.9 4.9 4.8 4.5 4.5 4.6 4.4 4.1 4.2 4.0 4.0 4.2
3.9 3.8 3.5 3.7 4.0 3.4 5.3 5.8 5.9 5.7 5.8 5.7 5.7 5.4 5.3 5.2 4.9 4.4 4.0 4.3 4.6 4.7 4.7 4.9 5.0 5.2 5.0 4.6 4.5 4.5 4.5 4.4 4.5 4.6 4.6 4.5 4.2 4.0 4.1 4.1 4.0 4.2 3.9 3.9
4.5 3.7 3.3 3.7 3.9 4.9 5.9 6.2 6.5 5.8 5.7 5.7 5.5 5.6 5.4 5.0 5.0 5.3 4.7 4.5 4.4 4.6 4.6 4.4 4.4 4.6 4.3 4.1 4.0 4.0 4.1 4.1 4.2 4.3 4.4 4.4 4.2 4.3 4.4 4.3 4.1 3.8 3.8 3.9
5.6 5.0 3.9 4.2 4.0 4.4 6.0 5.8 5.6 5.4 5.0 5.6 5.0 4.7 4.7 4.7 4.9 5.6 5.3 5.2 5.2 5.1 4.7 4.6 4.6 4.4 4.1 3.8 3.7 3.8 3.9 3.9 3.9 3.8 3.8 3.9 4.0 4.1 4.2 4.2 4.1 4.0 3.8 3.6
5.9 5.4 5.1 4.6 4.2 4.9 6.2 6.0 5.5 5.2 5.2 5.1 4.9 4.7 4.5 4.6 4.5 4.4 4.8 4.9 4.7 4.7 4.5 4.4 4.1 3.8 3.6 3.5 3.5 3.5 3.6 3.6 3.6 3.5 3.5 3.5 3.4 3.4 3.5 3.6 3.8 3.7 3.8 3.7
5.7 5.7 5.3 4.3 4.4 4.7 6.1 5.5 5.6 5.6 5.3 4.8 4.6 4.8 4.8 4.6 4.2 4.0 4.0 4.2 4.4 4.3 4.0 3.8 3.5 3.3 3.2 3.2 3.2 3.3 3.2 3.1 3.2 3.2 3.2 3.2 3.2 3.3 3.6 3.9 4.0 4.1 4.2 4.1
5.2 5.9 5.6 6.0 6.5 6.5 6.2 5.2 5.1 5.0 4.7 4.4 4.1 4.1 4.3 4.3 4.1 4.1 4.1 4.1 4.0 3.8 3.6 3.5 3.3 3.2 3.2 3.2 3.1 3.3 3.5 3.6 3.7 3.7 3.7 3.8 4.0 4.0 4.0 4.3 4.5 4.6 4.6 4.5
5.0 5.3 5.3 5.6 5.9 6.0 5.8 5.5 5.0 4.4 4.0 3.9 3.8 4.3 4.3 4.0 4.0 4.0 3.9 3.9 3.8 3.6 3.1 3.0 3.0 3.1 3.2 3.4 3.6 3.4 3.6 3.8 4.0 4.1 4.4 4.6 4.7 4.8 4.9 4.8 4.9 5.1 5.1 4.9
5.4 5.6 6.0 5.0 5.2 5.3 5.3 5.2 4.7 4.5 4.2 4.1 4.4 4.3 3.9 3.7 3.7 3.9 4.2 4.1 4.1 3.7 3.4 3.5 3.6 3.7 3.7 4.0 4.3 4.3 4.4 4.5 4.7 4.9 4.9 5.1 5.3 5.3 5.4 5.4 5.1 5.2 5.5 5.4
6.7 6.8 5.3 5.1 5.3 5.0 4.9 4.9 4.6 4.5 4.2 4.2 4.3 4.2 4.4 4.3 4.1 4.1 4.0 3.8 3.6 3.7 3.8 3.9 4.1 4.0 4.2 4.3 4.5 4.6 4.8 5.0 5.3 5.4 5.5 5.6 5.6 5.7 5.7 5.8 6.1 6.2 5.7 5.9
Wind_Speed
2 7 5 6 6 3 3 5 7 3 5 5 6 14 21 9 9 6 6 2 6 6 8 6 4 3 3 3 4 2 2 3 2 2 3 2 3 4 3 6 10 12 11 11
4 4 4 2 3 4 1 6 4 3 2 5 9 20 16 5 2 5 6 7 8 7 7 6 6 6 5 4 3 4 3 2 2 1 2 2 3 3 4 3 9 14 14 13
5 4 2 2 3 5 4 3 4 2 8 4 8 8 4 4 7 6 4 7 6 6 7 7 7 7 6 6 7 5 3 3 3 3 3 3 3 3 3 4 4 4 13 11
5 2 2 1 1 4 2 4 4 6 6 3 5 4 4 4 6 5 8 6 6 7 4 2 2 4 5 5 5 3 4 5 4 3 3 4 3 4 3 3 3 4 10 9
1 2 0 3 3 5 3 4 4 2 4 3 3 3 6 4 5 5 8 9 7 6 3 1 2 4 4 3 4 5 5 4 5 4 4 4 5 3 3 4 6 6 6 8
4 2 3 5 1 2 5 5 5 2 1 2 1 3 5 3 2 3 8 7 6 5 1 1 3 4 5 5 5 5 6 6 6 4 5 6 7 6 4 4 4 5 4 6
3 4 3 2 4 5 2 4 2 5 2 4 3 2 7 3 3 6 8 7 4 2 3 4 6 5 5 5 5 5 7 7 6 7 7 7 7 6 6 6 4 4 7 7
4 3 3 3 2 2 2 1 4 3 2 4 4 4 4 4 6 6 5 2 2 5 5 6 7 7 7 7 7 6 6 7 7 7 8 7 7 4 4 5 4 3 3 4
2 2 3 1 2 3 1 1 1 1 1 2 4 4 6 7 6 5 3 7 7 7 7 7 8 7 6 6 6 6 6 6 7 8 7 7 7 7 6 7 5 4 4 3
2 1 1 4 3 2 2 1 1 2 2 4 5 2 4 2 4 6 5 4 5 5 6 7 7 7 5 6 5 4 5 7 7 7 7 6 7 7 7 6 6 6 5 4
2 2 1 1 5 4 2 2 2 1 2 2 4 5 4 8 5 3 5 5 5 6 5 6 6 7 7 6 6 6 6 7 7 7 7 7 7 7 7 6 6 6 5 4
3 3 3 2 4 5 3 3 6 3 1 3 3 6 5 7 5 4 6 6 6 5 7 6 7 7 7 7 7 7 7 7 7 7 7 8 7 7 7 7 7 7 6 6
2 2 3 2 2 1 3 4 4 3 3 5 1 5 4 6 7 3 6 5 6 7 7 6 6 7 7 7 7 8 7 8 7 6 6 7 7 7 8 7 7 7 7 7
3 3 4 5 2 1 4 5 7 6 3 4 8 3 6 5 6 8 6 6 8 8 8 7 8 8 8 8 8 8 8 7 7 5 6 7 8 8 7 7 8 7 6 6
1 3 3 7 9 7 8 10 9 11 12 5 2 7 8 9 5 5 6 8 8 8 8 8 9 10 13 11 8 9 8 8 7 7 7 8 7 7 7 7 7 7 7 7
4 3 3 5 11 10 10 14 15 17 16 15 17 23 14 1 6 6 7 8 10 8 10 14 15 14 11 10 11 11 10 8 6 7 8 7 7 7 8 8 7 7 7 7
5 2 3 5 3 7 9 6 12 7 5 10 12 10 3 5 4 5 7 7 8 8 11 13 14 12 12 11 12 14 11 7 7 7 8 7 7 7 8 7 7 8 8 6
2 3 2 4 6 3 5 2 3 6 5 9 7 4 2 3 4 6 8 5 7 11 14 14 10 11 12 10 11 10 8 7 8 8 8 7 7 8 7 7 8 7 6 8
4 2 3 3 3 9 2 2 3 3 5 3 4 4 2 4 6 8 2 8 9 10 10 9 9 10 11 11 10 11 12 9 8 10 8 7 7 8 8 8 9 7 6 7
3 3 3 2 3 5 1 4 4 5 4 5 3 3 4 3 4 5 7 6 8 8 7 7 9 10 9 10 10 11 12 12 11 11 12 10 9 9 8 8 8 7 8 10
3 3 10 7 4 7 2 7 3 3 4 5 0 4 3 3 4 5 9 10 8 8 8 8 8 9 9 10 9 10 11 12 12 12 12 13 10 10 8 7 5 6 6 6
7 7 4 4 5 9 6 5 3 1 2 2 4 4 3 5 7 7 7 8 8 7 7 7 7 10 11 8 7 10 10 10 10 10 11 12 12 9 8 7 6 5 6 6
3 6 4 8 6 3 6 3 5 3 6 4 2 2 3 6 6 6 7 7 6 7 6 6 6 9 9 7 6 9 11 11 12 12 12 11 11 10 8 6 6 4 5 5
4 6 4 1 4 3 4 3 6 3 2 4 3 3 5 5 6 9 6 5 5 5 6 5 8 9 11 11 11 8 9 8 8 9 10 10 9 11 7 4 4 4 5 5
3 3 4 5 6 10 10 7 10 5 4 5 5 4 5 7 9 7 4 6 6 6 6 6 7 9 12 12 13 13 12 10 9 9 9 10 8 9 9 6 5 5 7 8
10 19 11 15 12 12 15 8 7 4 5 5 4 5 6 6 6 4 5 4 5 7 8 9 11 8 10 11 13 13 12 12 12 11 9 9 8 7 7 7 9 11 15 15
Wind_Direction
36 63 68 53 12 335 1 316 292 339 82 346 268 280 284 272 260 253 249 171 119 137 113 116 134 158 191 230 234 288 322 300 337 338 326 330 334 321 324 305 309 325 325 317
69 98 62 7 304 283 302 294 346 317 87 327 289 289 290 314 159 146 150 135 141 120 133 159 189 194 213 249 286 264 253 306 319 339 314 293 322 305 295 311 354 328 333 332
114 91 124 302 253 342 110 29 15 280 309 251 310 286 162 49 92 79 46 78 86 128 163 173 191 205 213 218 223 237 248 270 288 306 320 311 313 327 318 337 324 316 329 328
82 81 342 307 78 341 305 31 335 317 5 288 32 278 25 157 139 181 167 167 127 116 120 130 230 254 235 238 201 191 240 249 261 275 307 308 299 303 299 320 289 333 315 324
211 143 97 275 40 344 32 354 326 313 307 328 201 71 273 109 150 178 100 87 84 84 67 71 238 255 266 271 243 226 240 249 254 245 260 276 287 288 294 300 312 321 315 325
81 24 338 20 39 344 316 265 247 160 277 25 28 108 294 49 326 72 90 86 76 67 33 243 252 258 266 260 243 232 239 251 248 244 259 267 268 279 295 298 308 313 329 322
173 141 115 290 250 200 281 45 346 355 356 221 199 43 247 17 76 57 83 55 35 346 344 320 310 302 290 286 271 236 228 247 242 238 237 250 257 265 274 284 291 303 313 315
167 314 191 152 329 308 20 283 133 213 326 287 155 238 272 124 83 72 83 179 58 38 354 339 313 292 273 262 254 243 241 242 229 231 238 244 254 249 254 262 265 259 257 268
344 161 141 311 351 338 155 32 12 35 258 7 233 231 50 33 136 115 92 52 25 13 358 340 324 316 318 312 287 258 251 250 233 230 230 236 240 241 240 251 257 252 261 265
63 289 191 123 235 163 338 5 19 354 34 291 283 237 209 344 123 61 46 43 13 5 2 344 342 331 315 304 288 290 258 252 248 241 230 234 238 243 242 243 256 262 268 282
357 123 163 80 199 162 152 212 227 33 180 228 316 270 160 190 168 93 38 44 29 18 351 335 329 329 326 335 321 276 250 245 248 241 240 234 239 243 248 245 238 238 239 261
52 331 262 173 69 31 338 305 186 131 221 237 171 275 140 156 171 235 51 60 17 3 338 334 343 335 332 329 318 310 291 260 244 233 229 234 234 235 239 244 242 238 231 225
95 251 332 324 48 120 265 216 258 338 56 229 164 265 132 174 207 32 88 42 11 343 332 318 326 321 318 313 313 301 297 286 264 246 238 246 244 237 235 234 235 236 223 233
14 290 218 206 159 150 221 218 202 192 167 228 224 250 202 168 341 2 36 14 8 331 328 328 323 319 314 318 311 312 318 314 289 265 254 253 247 239 238 235 228 231 225 228
253 261 269 283 292 278 254 249 232 213 224 220 269 286 289 328 18 6 353 356 346 324 324 331 327 327 326 320 315 314 307 308 308 277 263 255 255 247 245 244 234 224 213 222
175 281 316 287 262 248 262 251 239 239 242 246 253 270 272 280 23 354 339 338 327 319 350 339 322 315 320 322 316 315 314 313 310 308 267 265 264 256 247 245 232 223 222 219
176 229 1 268 325 318 282 254 231 211 208 225 242 260 28 3 356 335 309 314 302 336 327 321 316 322 322 325 319 312 306 303 304 301 279 272 265 258 249 243 233 230 227 216
210 207 223 277 310 248 258 89 244 241 196 207 240 273 52 14 332 317 296 308 330 326 321 315 319 317 320 319 311 314 318 316 307 303 291 283 269 262 254 240 233 227 215 222
253 287 277 247 264 286 177 210 171 135 252 185 213 106 331 330 332 285 55 352 327 299 304 308 315 314 319 321 321 324 322 317 316 315 305 307 308 280 258 245 243 231 218 218
302 243 253 235 239 255 125 146 56 73 258 123 95 261 279 328 290 287 340 300 298 302 297 311 313 311 315 311 320 318 318 321 320 320 315 305 300 292 274 250 249 239 229 234
164 208 220 229 265 279 192 145 159 160 215 190 276 263 271 263 234 288 320 314 312 309 323 325 319 315 316 322 319 321 322 320 318 317 315 314 304 293 276 262 250 239 233 233
173 174 195 194 229 250 114 102 205 76 353 255 252 253 281 294 296 297 298 303 309 320 324 327 325 322 324 323 324 317 311 305 309 311 311 312 311 305 302 266 259 257 245 230
215 200 195 193 217 141 182 247 238 258 236 258 210 24 320 298 294 302 302 303 317 317 323 323 323 315 314 314 317 310 307 314 315 319 316 313 311 307 300 277 265 262 252 239
235 239 234 14 256 248 14 275 255 310 66 64 21 344 332 311 309 300 279 302 304 316 321 319 316 313 314 322 322 307 302 299 298 299 304 307 308 311 301 284 256 236 240 244
250 354 266 277 301 302 287 296 321 353 11 351 19 2 318 308 293 280 317 314 315 312 313 311 303 311 313 317 319 319 317 317 307 305 304 304 304 308 308 290 265 248 240 236
249 260 267 270 289 291 293 295 299 339 50 30 356 324 316 303 304 324 308 305 305 304 310 310 308 303 300 309 310 311 318 320 308 303 305 301 300 300 298 297 299 262 263 255